Location: Gleizolles
(44.4833°N, 6.7667°E)
Time: 01:07:48
(UTC+00:00)

S-56A Canister/Altair - Pass Details

Date: 04 July 2024
Orbit: 638 x 2488 km, 38.9° (Epoch: 24 July)

Event Time Altitude Azimuth Distance (km) Brightness Sun altitude
Rises 22:51:55 0° 275° (W) 4,314 11.6 -21.9°
Reaches altitude 10° 22:55:06 10° 263° (W) 3,607 11.0 -22.1°
Maximum altitude 23:02:34 26° 212° (SSW) 3,079 10.1 -22.3°
Enters shadow 23:03:53 26° 202° (SSW) 3,191 10.1 -22.3°
Drops below altitude 10° 23:12:15 10° 163° (SSE) 4,754 - -22.5°
Sets 23:17:17 0° 152° (SSE) 5,963 - -22.6°
